Location: Cold Norton
(51.6667°N, 0.6667°E)
Time: 17:14:14
(UTC+00:00)

Thor Agena Rocket - Pass Details

Date: 18 November 2025
Orbit: 754 x 802 km, 99.1° (Epoch: 13 December)

Event Time Altitude Azimuth Distance (km) Brightness Sun altitude
Rises 17:22:19 0° 177° (S) 3,300 7.0 -12.1°
Reaches altitude 10° 17:24:42 10° 182° (S) 2,375 6.3 -12.4°
Maximum altitude 17:29:50 53° 259° (WSW) 983 4.5 -13.2°
Drops below altitude 10° 17:35:00 10° 336° (NNW) 2,386 6.2 -14.0°
Sets 17:37:24 0° 341° (NNW) 3,317 6.9 -14.3°
